Regional Weather Roundup
Issued by NWS Goodland, KS

Home | Current Version | Previous Version | Text Only | Print | Product List | Glossary Off
Versions: 1 2 3 4 5 6 7 8 9 10 11 12 13 14 15 16 17 18 19 20 21 22 23 24 25 26 27 28 29 30 31 32 33 34 35 36 37 38 39 40 41 42 43 44 45 46 47 48 49 50

000
ASUS43 KGLD 282159
RWRGLD

GOODLAND FORECAST AREA HOURLY WEATHER ROUNDUP
NATIONAL WEATHER SERVICE GOODLAND KS
400 PM MDT MON JUL 28 2014

...OFFICIAL OBSERVATIONS...

CITY           SKY/WX    TMP DP  RH WIND       PRES   REMARKS
GOODLAND KS    SUNNY     84  53  34 S14G21    30.26F
HILL CITY KS   SUNNY     89  54  30 S6G18     30.21F
IMPERIAL NEB   PTSUNNY   85  58  39 E9        30.22F
MCCOOK NEB     SUNNY     89  55  31 SE5       30.21F
AKRON CO       MOSUNNY   84  53  34 S14G25    30.26F
BURLINGTON CO  SUNNY     82  52  35 S15G25    30.29F
LIMON CO       PTSUNNY   78  54  43 S15G23    30.33F
$$

...UNOFFICIAL OBSERVATIONS...

CITY           SKY/WX    TMP DP  RH WIND       PRES   REMARKS
COLBY KS       MOSUNNY   88  59  37 S13       30.25F
NORTON KS      MOSUNNY   88  48  25 SE7       30.21F
WAKEENEY KS      N/A     90  49  24 MISG        N/A
TRENTON NEB      N/A     92  32  12 SE9         N/A
KIT CARSON CO    N/A     81  55  40 N12G20      N/A
YUMA CO          N/A     85  54  34 SE12G20     N/A
$$



USA.gov is the U.S. government's official web portal to all federal, state and local government web resources and services.